Location: Hellegom
(52.2939°N, 4.5938°E)
Time: 07:25:29
(UTC+00:00)

Daily predictions for brighter satellites

Satellite Brightness Start Highest point End
(mag) Time Altitude Azimuth Time Altitude Azimuth Time Altitude Azimuth
Cosmos 2344 4.4 16:28:39 10° WNW 16:36:21 44° NNE 16:46:19 10° E
SMAP 3.1 16:38:37 10° SSE 16:43:14 68° ENE 16:47:54 10° N
CZ-4B R/B 3.3 16:39:51 10° SSE 16:45:22 69° ENE 16:50:59 10° NNW
SL-24 R/B 4.2 16:41:31 10° SSE 16:45:49 61° ENE 16:50:29 10° N
Timation 1 Rocket 4.5 16:40:34 10° SSW 16:46:36 88° NW 16:52:40 10° NNE
Spot 2 4.4 16:42:28 10° SSE 16:47:07 80° WSW 16:51:31 10° NNW
Cosmos 1603 3.9 16:43:15 10° NNW 16:48:59 83° WSW 16:54:43 10° SSE
Meteor 2-10 Rocket 4.3 16:44:35 10° N 16:49:38 33° ENE 16:54:27 10° SE
AQUARIUS 4.1 16:45:42 10° SSE 16:50:09 69° ENE 16:54:39 10° N
Cosmos 2297 Rocket 3.4 16:44:59 10° WSW 16:50:12 37° NW 16:55:27 10° NNE
PAYLOAD B 4.4 16:44:50 10° SSE 16:50:21 84° WSW 16:55:55 10° NNW
OPS 8737 4.3 16:51:43 10° NW 16:54:41 59° NE 16:58:19 10° ESE
Cosmos 1606 Rocket 3.8 16:50:54 10° N 16:55:10 48° ENE 16:59:25 10° SSE
KORONAS-FOTON 4.2 16:52:30 10° SSW 16:56:24 71° WNW 17:00:21 10° N
H-2A R/B 2.5 16:52:51 10° NNE 16:57:12 46° E 17:01:25 10° S
CZ-2D R/B 4.1 16:54:43 10° SE 16:58:01 28° ENE 17:01:19 10° N
USA 234 3.5 16:53:33 10° ENE 16:59:58 60° N 17:06:24 10° WNW
YAOGAN 1 3.8 16:57:37 10° ESE 17:00:50 21° ENE 17:04:04 10° N
CZ-4C R/B 2.7 16:58:01 10° NNE 17:01:11 73° ESE 17:04:19 10° S
ATLAS 5 CENTAUR R/B 1.9 16:57:50 10° SSW 17:01:44 48° SE 17:06:05 10° NE
Cosmos 2082 4.4 16:56:53 10° SW 17:02:30 55° NW 17:08:07 10° NNE
FengYun 1-2 T 4.2 16:57:21 10° SSE 17:02:54 77° ENE 17:08:33 10° NNW
Tsikada Rocket 4.1 16:58:01 10° S 17:04:20 87° W 17:10:38 10° N
NOAA 12 4.3 16:59:36 10° SSE 17:04:50 80° WSW 17:10:07 10° NNW
SL-14 R/B 3.3 17:02:14 10° S 17:06:03 58° E 17:09:55 10° NNE
MOS 1 Rocket 4.4 17:03:07 10° NE 17:06:20 20° E 17:09:30 10° SE
Helios 1A Rocket 4.3 17:03:47 10° ESE 17:06:42 19° ENE 17:09:39 10° NNE
ATLAS 3B R/B 3.9 17:00:06 10° NW 17:06:44 49° WSW 17:13:37 10° SSE
Cosmos 2228 2.9 17:02:56 10° N 17:07:12 67° ENE 17:11:28 10° SSE
RESURS DK-1 2.3 17:03:10 10° SSW 17:07:18 83° ESE 17:11:29 10° NE
Cosmos 2142 Rocket 4.4 17:02:58 10° N 17:09:10 71° ENE 17:15:17 10° SSE
SKYMED 2 4.5 17:08:39 10° NE 17:12:26 28° E 17:16:11 10° SSE
Cosmos 1538 Rocket 4.0 17:08:28 10° NNW 17:13:36 57° ENE 17:18:41 10° SE
Aureole 3 4.3 17:11:04 10° NNE 17:13:54 20° ENE 17:16:23 10° ESE
CZ-4C R/B 2.5 17:09:48 10° WSW 17:14:59 68° NW 17:21:18 10° NE
Meteor 2-5 Rocket 3.7 17:09:29 10° S 17:15:01 70° E 17:20:32 10° NNE
CZ-3B R/B 1.1 17:13:41 10° WNW 17:15:44 67° NNE 17:20:00 10° ESE
SJ 16-02 2.9 17:15:21 10° SE 17:17:57 16° E 17:18:57 15° E
Cosmos 2263 Rocket 2.2 17:17:03 10° SSW 17:22:43 81° ESE 17:28:26 10° NNE
Cosmos 1455 3.1 17:21:18 10° N 17:24:36 27° ENE 17:27:54 10° SE
Cosmos 968 Rocket 4.2 17:20:28 10° SW 17:25:26 51° WNW 17:30:28 10° NNE
Cosmos 2058 Rocket 3.3 17:22:12 10° N 17:26:37 50° ENE 17:31:01 10° SSE
Cosmos 1354 Rocket 4.0 17:22:00 10° SSW 17:27:21 88° ESE 17:32:44 10° NNE
USA-17 4.2 17:25:24 10° SW 17:28:53 82° NW 17:30:59 19° NE
Cosmos 1300 3.2 17:25:08 10° NNW 17:28:57 64° W 17:32:43 10° S
COSMOS 2406 4.4 17:25:14 10° NNW 17:29:55 24° NE 17:32:43 17° ENE
Landsat 5 4.0 17:29:47 10° N 17:33:42 54° WNW 17:37:28 10° SSW
NOSS 7 (H) 4.2 17:30:38 10° SW 17:33:47 68° NW 17:35:34 21° NE
GENESIS II 4.2 17:32:41 10° SW 17:36:43 81° SE 17:39:28 19° NE
ADEOS Rocket 4.5 17:31:49 10° N 17:37:20 34° WNW 17:42:26 10° WSW
ARGOS 3.7 17:34:21 10° SE 17:39:09 35° ENE 17:44:00 10° N
NOSS 3-1 (C) 4.1 17:33:17 10° NW 17:40:06 54° NNE 17:47:11 14° ESE
Lacrosse 5 1.9 17:35:02 10° WNW 17:40:07 86° SSW 17:45:00 11° ESE
CREW DRAGON DEMO-1 DEB 2.9 17:37:33 10° W 17:40:26 65° SSW 17:41:52 26° ESE
Okean 1-7 Rocket 4.0 17:37:56 10° SSE 17:42:12 41° E 17:46:30 10° NNE
Cosmos 1726 Rocket 3.7 17:37:49 10° NNW 17:42:12 78° W 17:46:34 10° S
ERS-2 2.9 17:42:02 25° ENE 17:43:12 30° E 17:46:28 10° SSE
CZ-2C R/B 4.2 17:45:49 17° ESE 17:45:49 17° ESE 17:48:20 10° SE
ISS -1.6 17:42:55 10° S 17:44:40 13° SE 17:45:00 13° SE
Cosmos 1939 Rocket 3.2 17:42:03 10° S 17:46:09 69° WSW 17:50:15 10° NNW
Meteor 1-24 Rocket 3.6 17:43:47 10° SSW 17:49:08 83° WNW 17:54:29 10° NNE
CSL-04 Debris 4.5 17:44:11 10° SE 17:49:12 42° ENE 17:54:16 10° N
COSMOS 2455 3.1 17:44:17 10° SSW 17:50:05 51° ESE 17:54:02 20° NE
Cosmos 1833 Rocket 3.6 17:48:24 10° NNW 17:53:10 27° NE 17:54:41 24° ENE
Cosmos 1626 Rocket 4.3 17:49:41 10° SSE 17:53:29 29° E 17:54:01 29° ENE
Cosmos 2082 Rocket 3.5 17:50:35 10° NNW 17:54:53 21° NNE 17:55:56 20° NE
Cosmos 1844 4.4 17:50:25 10° SSE 17:55:19 31° ESE 17:57:10 26° ENE
IRS-1C Rocket 4.0 17:51:44 10° SSE 17:57:00 89° ENE 18:02:18 10° NNW
USA 229 DEB 4.1 17:50:10 10° NW 17:57:05 52° NNE 18:01:49 23° E
USA 229 4.1 17:50:16 10° NW 17:57:11 52° NNE 18:01:52 23° E
USA 281 4.4 17:56:41 20° NE 17:58:20 22° NNE 18:03:08 10° NNW
CZ-4 R/B 1.3 17:54:21 10° SSE 17:58:25 70° ENE 18:02:26 10° N
NOAA 15 4.5 17:54:37 10° SSE 17:59:50 69° ENE 18:05:06 10° NNW
COSMO-SKYMED 1 2.4 17:56:24 10° NNE 18:00:46 78° ESE 18:05:06 10° S
NOSS 3-4 (A) 4.3 17:56:48 10° W 18:02:32 42° NNW 18:07:06 18° NE
NOSS 3-4 (C) 4.3 17:56:56 10° W 18:02:41 42° NNW 18:07:15 18° NE
SL-08 RB Rocket 4.2 18:05:16 34° E 18:05:56 36° ENE 18:10:02 10° N
Ariane Rocket 4.3 18:10:03 21° NE 18:10:03 21° NE 18:12:47 10° N
CZ-4B R/B 1.7 18:08:14 15° N 18:10:58 65° WNW 18:14:16 10° SSW
Cosmos 2227 Rocket 4.3 18:06:59 10° WNW 18:10:58 19° NNW 18:14:59 10° NNE
NOSS 3-1 (A) 4.1 18:05:48 10° NW 18:12:39 55° NNE 18:16:57 28° E
Okean-O 2.5 18:10:08 10° SSE 18:14:34 89° E 18:19:03 10° NNW
Cosmos 923 Rocket 3.9 18:09:57 10° NNW 18:15:20 81° ENE 18:20:40 10° SSE
CZ-2C R/B 3.6 18:10:54 10° S 18:16:11 66° WSW 18:21:49 10° NNW
Cosmos 1844 Rocket 2.8 18:11:40 10° S 18:17:09 53° ESE 18:19:24 33° NE
Cosmos 1689 Rocket 4.4 18:20:01 14° S 18:20:01 14° S 18:20:33 10° S
Okean O Rocket 4.2 18:14:18 10° SW 18:17:52 23° W 18:21:26 10° NW
H-2A R/B 1.9 18:13:33 10° SSE 18:18:34 85° ENE 18:23:43 10° NNW
Meteor 1-21 Rocket 4.2 18:14:35 10° S 18:20:00 58° E 18:25:18 11° NNE
ATLAS 2AS CENTAUR R/B 3.6 18:12:37 10° W 18:20:17 49° NNW 18:25:30 20° NE
Aureole 2 Rocket 3.0 18:17:23 10° SSW 18:19:28 39° S 18:19:28 39° S
Cosmos 158 Rocket 4.0 18:15:23 10° NNW 18:20:44 87° WSW 18:26:08 10° SSE
Meteor 2-8 Rocket 4.4 18:15:05 10° N 18:21:06 58° ENE 18:27:06 10° SSE
Cosmos 1680 Rocket 3.4 18:17:27 10° NNW 18:22:44 73° ENE 18:26:36 18° SE
SAR-Lupe-4 3.6 18:31:28 70° S 18:31:28 70° S 18:34:41 10° SSW
H-2A R/B 4.1 18:29:11 10° N 18:32:57 27° WNW 18:36:38 10° WSW
Cosmos 1818 3.6 18:28:35 10° SSW 18:33:54 58° SE 18:34:53 50° E
Cosmos 2297 Rocket 4.5 18:32:54 10° NW 18:36:00 15° NNW 18:39:06 10° NNE
YAOGAN 1 3.1 18:32:18 10° S 18:36:34 60° WSW 18:40:53 10° NNW
CSL-04 Rocket 3.6 18:35:00 10° SSE 18:40:25 90° ENE 18:45:58 10° NNW
Helios 1A Rocket 3.3 18:37:21 10° S 18:41:27 63° WSW 18:45:36 10° NNW
SAR-Lupe-1 4.5 18:42:35 58° SW 18:42:35 58° SW 18:45:33 10° SSW
USA 234 3.2 18:40:19 42° E 18:42:42 75° NNE 18:49:15 10° WNW
APEX 4.5 18:36:21 10° SSW 18:43:20 88° WNW 18:46:31 32° NNE
MOS 1 Rocket 3.8 18:40:55 11° N 18:44:58 53° WNW 18:49:08 10° SSW
Iridium 4 Rocket 3.5 18:39:19 10° N 18:45:09 80° E 18:50:32 10° S
ATLAS 5 CENTAUR R/B 2.6 18:42:27 10° W 18:46:28 39° NNW 18:47:38 33° N
Cosmos 1092 Rocket 3.8 18:40:54 10° S 18:47:04 77° E 18:53:14 10° NNE
Cosmos 1812 Rocket 3.5 18:43:50 10° NNW 18:48:17 87° WSW 18:48:54 65° S
Meteor 2-15 Rocket 4.4 18:44:54 10° N 18:50:58 56° ENE 18:51:11 55° E
Cosmos 2344 4.1 18:43:23 10° NW 18:52:15 82° NE 18:59:35 28° SE
SL-24 R/B - RUBIN 2 4.5 18:46:15 10° SW 18:52:57 78° SE 18:54:50 50° NE
SJ 16-02 1.4 18:51:34 10° SSW 18:55:58 75° WNW 18:55:59 75° WNW
Cosmos 2112 Rocket 4.2 18:54:56 10° NNW 19:00:11 70° WSW 19:02:18 36° S
Cosmos 1455 4.1 18:56:50 10° NNW 19:00:12 30° W 19:03:34 10° SSW
MetOp-A 4.3 19:04:29 59° NNE 19:04:29 59° NNE 19:08:58 10° NNW
CZ-4C R/B 3.6 18:59:26 10° WNW 19:04:37 33° NNW 19:06:30 28° NNE
Cosmos 2263 Rocket 3.9 19:02:30 10° W 19:07:18 28° NW 19:10:38 17° N
COSMOS 2406 3.1 19:09:17 10° NNW 19:14:49 79° N 19:14:49 79° N
ERS-2 4.1 19:16:37 27° WNW 19:16:41 27° WNW 19:19:47 10° WSW
ARGOS 4.1 19:14:13 10° S 19:19:20 46° W 19:24:31 10° NNW
ISS -0.7 19:17:37 10° SW 19:17:58 12° SW 19:17:58 12° SW
Lacrosse 5 3.7 19:18:29 10° WNW 19:22:35 25° SW 19:24:15 21° SSW
CZ-2C R/B 3.4 19:27:19 45° SSW 19:27:19 45° SSW 19:31:07 10° SSW
NOSS 3-1 (C) 4.3 19:24:07 10° NW 19:31:23 64° SW 19:34:39 38° SSE
CZ-4 R/B 4.4 19:31:31 10° SW 19:33:53 15° W 19:36:15 10° NW
Cosmos 1553 Rocket 4.1 19:29:02 10° NNW 19:35:28 77° W 19:36:14 68° SSW
COSMOS 2455 3.6 19:30:22 10° WSW 19:36:09 46° NW 19:37:13 42° N
Cosmos 1833 Rocket 3.2 19:32:07 10° NNW 19:36:25 54° NW 19:36:25 54° NW
Cosmos 1844 4.2 19:33:35 10° SW 19:39:07 58° NW 19:39:07 58° NW
Cosmos 2082 Rocket 3.3 19:34:20 10° NNW 19:37:48 37° NNW 19:37:48 37° NNW
Cosmos 2026 Rocket 4.4 19:35:35 10° SSW 19:41:37 60° WNW 19:47:47 10° N
USA 281 3.7 19:43:33 47° N 19:43:33 47° N 19:48:17 10° NNW
USA 229 DEB 4.1 19:41:14 10° NW 19:48:23 64° SW 19:49:18 60° SSW
USA 229 4.1 19:41:20 10° NW 19:48:29 65° SW 19:49:21 61° SSW
USA 267 4.2 19:51:34 36° SSW 19:51:34 36° SSW 19:55:24 10° SW
Cosmos 1844 Rocket 3.9 19:56:02 10° WSW 20:01:07 37° NW 20:01:07 37° NW
NOSS 3-1 (A) 4.2 19:56:42 10° NW 20:03:58 63° SW 20:04:27 62° SW
ATLAS 2AS CENTAUR R/B 3.9 20:05:54 10° WNW 20:12:56 35° N 20:12:56 35° N
USA 234 4.1 20:27:41 44° W 20:27:41 44° W 20:32:23 10° WNW
CZ-4C R/B 4.4 20:49:06 10° NW 20:51:41 23° NNW 20:51:41 23° NNW
